| time (UTC) | temp C | wind direction | speed KPH | gust KPH | rain 1hr cm | rain 24hr cm | rain mn cm | humidity % | barometer mb |
| 20260508135440 | 15 | 264 | 1.6 | 1.6 | 0.00 | 0.00 | 0.00 | 84 | 1017.3 |
| 20260508134939 | 14 | 225 | 1.6 | 1.6 | 0.00 | 0.00 | 0.00 | 85 | 1017.6 |
| 20260508134437 | 14 | 238 | 0.0 | 1.6 | 0.00 | 0.00 | 0.00 | 84 | 1017.6 |
| 20260508133935 | 13 | 241 | 1.6 | 1.6 | 0.00 | 0.00 | 0.00 | 87 | 1017.6 |
| 20260508133433 | 13 | 139 | 1.6 | 1.6 | 0.00 | 0.00 | 0.00 | 87 | 1017.6 |
| 20260508132932 | 12 | 56 | 0.0 | 1.6 | 0.00 | 0.00 | 0.00 | 91 | 1017.6 |
| 20260508132431 | 12 | 56 | 1.6 | 1.6 | 0.00 | 0.00 | 0.00 | 93 | 1017.6 |
| 20260508131930 | 11 | 56 | 0.0 | 1.6 | 0.00 | 0.00 | 0.00 | 95 | 1017.6 |
| 20260508131356 | 11 | 56 | 1.6 | 1.6 | 0.00 | 0.00 | 0.00 | 95 | 1017.6 |
| 20260508130824 | 10 | 83 | 1.6 | 1.6 | 0.00 | 0.00 | 0.00 | 95 | 1017.3 |
| 20260508130322 | 10 | 84 | 0.0 | 1.6 | 0.00 | 0.00 | 0.00 | 95 | 1017.3 |
| 20260508125820 | 10 | 86 | 0.0 | 1.6 | 0.00 | 0.00 | 0.00 | 96 | 1017.3 |
| 20260508125318 | 9 | 70 | 0.0 | 3.2 | 0.00 | 0.00 | 0.00 | 95 | 1017.3 |
| 20260508124816 | 9 | 70 | 1.6 | 3.2 | 0.00 | 0.00 | 0.00 | 95 | 1017.3 |
| 20260508124315 | 8 | 73 | 0.0 | 3.2 | 0.00 | 0.00 | 0.00 | 95 | 1017.3 |
| 20260508123814 | 8 | 57 | 1.6 | 3.2 | 0.00 | 0.00 | 0.00 | 95 | 1017.3 |
| 20260508123313 | 8 | 96 | 0.0 | 1.6 | 0.00 | 0.00 | 0.00 | 95 | 1016.9 |
| 20260508122812 | 7 | 96 | 1.6 | 1.6 | 0.00 | 0.00 | 0.00 | 95 | 1016.9 |
| 20260508122311 | 7 | 98 | 0.0 | 0.0 | 0.00 | 0.00 | 0.00 | 95 | 1017.3 |
| 20260508121810 | 7 | 97 | 0.0 | 0.0 | 0.00 | 0.00 | 0.00 | 95 | 1017.3 |
| 20260508121308 | 6 | 98 | 0.0 | 0.0 | 0.00 | 0.00 | 0.00 | 95 | 1017.3 |
| 20260508120807 | 6 | 97 | 0.0 | 0.0 | 0.00 | 0.00 | 0.00 | 95 | 1017.3 |
| 20260508120233 | 6 | 97 | 0.0 | 0.0 | 0.00 | 0.00 | 0.00 | 95 | 1016.9 |
| 20260508115732 | 6 | 97 | 0.0 | 1.6 | 0.00 | 0.00 | 0.00 | 95 | 1016.9 |
| 20260508115231 | 5 | 98 | 0.0 | 1.6 | 0.00 | 0.00 | 0.00 | 95 | 1016.9 |
| 20260508114658 | 5 | 98 | 0.0 | 1.6 | 0.00 | 0.00 | 0.00 | 95 | 1016.6 |
| 20260508114157 | 5 | 98 | 0.0 | 1.6 | 0.00 | 0.00 | 0.00 | 95 | 1016.6 |
| 20260508113623 | 5 | 97 | 0.0 | 0.0 | 0.00 | 0.00 | 0.00 | 95 | 1016.6 |
| 20260508113122 | 5 | 97 | 0.0 | 0.0 | 0.00 | 0.00 | 0.00 | 95 | 1016.6 |
| 20260508112619 | 5 | 97 | 0.0 | 0.0 | 0.00 | 0.00 | 0.00 | 95 | 1016.3 |
| 20260508112118 | 5 | 97 | 0.0 | 0.0 | 0.00 | 0.00 | 0.00 | 95 | 1016.3 |
| 20260508111617 | 5 | 97 | 0.0 | 0.0 | 0.00 | 0.00 | 0.00 | 95 | 1016.3 |
| 20260508111044 | 5 | 98 | 0.0 | 0.0 | 0.00 | 0.00 | 0.00 | 95 | 1016.3 |
| 20260508110542 | 5 | 97 | 0.0 | 0.0 | 0.00 | 0.00 | 0.00 | 95 | 1015.9 |
| 20260508110040 | 5 | 98 | 0.0 | 0.0 | 0.00 | 0.00 | 0.00 | 95 | 1015.9 |
| 20260508105436 | 5 | 97 | 0.0 | 0.0 | 0.00 | 0.00 | 0.00 | 95 | 1015.9 |
| 20260508104935 | 4 | 97 | 0.0 | 0.0 | 0.00 | 0.00 | 0.00 | 95 | 1015.9 |
| 20260508104433 | 5 | 98 | 0.0 | 0.0 | 0.00 | 0.00 | 0.00 | 95 | 1015.9 |
| 20260508103900 | 5 | 97 | 0.0 | 0.0 | 0.00 | 0.00 | 0.00 | 95 | 1015.6 |
| 20260508103359 | 5 | 98 | 0.0 | 0.0 | 0.00 | 0.00 | 0.00 | 95 | 1015.6 |
| 20260508102856 | 5 | 98 | 0.0 | 0.0 | 0.00 | 0.00 | 0.00 | 95 | 1015.6 |
| 20260508102355 | 5 | 98 | 0.0 | 0.0 | 0.00 | 0.00 | 0.00 | 95 | 1015.6 |
| 20260508101751 | 5 | 97 | 0.0 | 0.0 | 0.00 | 0.03 | 0.00 | 95 | 1015.2 |
| 20260508101218 | 5 | 98 | 0.0 | 0.0 | 0.00 | 0.03 | 0.00 | 95 | 1015.2 |
| 20260508100716 | 5 | 97 | 0.0 | 0.0 | 0.00 | 0.03 | 0.00 | 95 | 1015.2 |
| 20260508100213 | 5 | 98 | 0.0 | 0.0 | 0.00 | 0.03 | 0.00 | 95 | 1015.2 |
| 20260508095713 | 5 | 98 | 0.0 | 0.0 | 0.00 | 0.03 | 0.00 | 95 | 1015.2 |
| 20260508095211 | 5 | 98 | 0.0 | 0.0 | 0.00 | 0.03 | 0.00 | 95 | 1015.2 |
| 20260508094710 | 5 | 98 | 0.0 | 0.0 | 0.00 | 0.03 | 0.00 | 95 | 1015.2 |
| 20260508094209 | 5 | 98 | 0.0 | 0.0 | 0.00 | 0.03 | 0.00 | 95 | 1015.2 |
| 20260508093707 | 5 | 98 | 0.0 | 0.0 | 0.00 | 0.03 | 0.00 | 95 | 1015.2 |
| 20260508093133 | 5 | 98 | 0.0 | 0.0 | 0.00 | 0.03 | 0.00 | 95 | 1015.2 |
| 20260508092632 | 5 | 98 | 0.0 | 0.0 | 0.00 | 0.03 | 0.00 | 95 | 1015.2 |
| 20260508092058 | 5 | 98 | 0.0 | 0.0 | 0.00 | 0.03 | 0.00 | 95 | 1015.2 |
| 20260508091556 | 5 | 98 | 0.0 | 0.0 | 0.00 | 0.05 | 0.00 | 95 | 1015.2 |
| 20260508091055 | 5 | 98 | 0.0 | 0.0 | 0.00 | 0.05 | 0.00 | 95 | 1014.9 |
| 20260508090523 | 5 | 97 | 0.0 | 0.0 | 0.00 | 0.05 | 0.00 | 95 | 1015.2 |
| 20260508090021 | 5 | 98 | 0.0 | 0.0 | 0.00 | 0.05 | 0.00 | 95 | 1015.2 |
| 20260508085520 | 5 | 97 | 0.0 | 0.0 | 0.00 | 0.05 | 0.00 | 95 | 1015.2 |
| 20260508085019 | 5 | 97 | 0.0 | 0.0 | 0.00 | 0.05 | 0.00 | 95 | 1014.9 |
| 20260508084447 | 6 | 97 | 0.0 | 1.6 | 0.00 | 0.08 | 0.00 | 95 | 1014.9 |
| 20260508083943 | 6 | 98 | 0.0 | 1.6 | 0.00 | 0.08 | 0.00 | 95 | 1015.2 |
| 20260508083442 | 6 | 97 | 0.0 | 1.6 | 0.00 | 0.08 | 0.00 | 95 | 1015.2 |
| 20260508082939 | 6 | 98 | 1.6 | 1.6 | 0.00 | 0.10 | 0.00 | 95 | 1015.2 |
| 20260508082438 | 6 | 97 | 0.0 | 0.0 | 0.00 | 0.10 | 0.00 | 95 | 1015.2 |
| 20260508081937 | 6 | 98 | 0.0 | 0.0 | 0.00 | 0.10 | 0.00 | 95 | 1014.9 |
| 20260508081436 | 6 | 97 | 0.0 | 0.0 | 0.00 | 0.10 | 0.00 | 95 | 1014.9 |
| 20260508080935 | 6 | 97 | 0.0 | 0.0 | 0.00 | 0.10 | 0.00 | 95 | 1014.9 |
| 20260508080433 | 6 | 97 | 0.0 | 0.0 | 0.00 | 0.10 | 0.00 | 95 | 1014.9 |
| 20260508075757 | 6 | 97 | 0.0 | 0.0 | 0.00 | 0.10 | 0.00 | 95 | 1014.9 |
| 20260508075256 | 6 | 97 | 0.0 | 0.0 | 0.00 | 0.10 | 0.00 | 95 | 1014.9 |
| 20260508074754 | 6 | 98 | 0.0 | 0.0 | 0.00 | 0.10 | 0.00 | 95 | 1014.9 |
| 20260508074253 | 6 | 97 | 0.0 | 0.0 | 0.00 | 0.10 | 0.00 | 95 | 1014.9 |
| 20260508073752 | 6 | 97 | 0.0 | 0.0 | 0.00 | 0.10 | 0.00 | 95 | 1014.9 |
| 20260508073250 | 6 | 98 | 0.0 | 0.0 | 0.00 | 0.10 | 0.00 | 95 | 1014.9 |
| 20260508072748 | 6 | 97 | 0.0 | 0.0 | 0.00 | 0.10 | 0.00 | 95 | 1014.9 |
| 20260508072247 | 6 | 98 | 0.0 | 0.0 | 0.00 | 0.10 | 0.00 | 95 | 1014.9 |
| 20260508071745 | 6 | 97 | 0.0 | 0.0 | 0.00 | 0.10 | 0.00 | 95 | 1014.9 |
| 20260508071243 | 6 | 98 | 0.0 | 0.0 | 0.00 | 0.10 | 0.00 | 95 | 1014.9 |
| 20260508070740 | 6 | 98 | 0.0 | 0.0 | 0.00 | 0.10 | 0.00 | 95 | 1014.9 |
| 20260508070238 | 6 | 97 | 0.0 | 0.0 | 0.00 | 0.10 | 0.00 | 95 | 1014.9 |
| 20260508065737 | 6 | 98 | 0.0 | 0.0 | 0.00 | 0.10 | 0.00 | 95 | 1015.2 |
| 20260508065203 | 6 | 98 | 0.0 | 0.0 | 0.00 | 0.10 | 0.00 | 95 | 1014.9 |
| 20260508064702 | 6 | 97 | 0.0 | 0.0 | 0.00 | 0.10 | 0.00 | 95 | 1014.9 |
| 20260508064201 | 7 | 97 | 0.0 | 0.0 | 0.00 | 0.10 | 0.00 | 95 | 1014.9 |
| 20260508063700 | 7 | 98 | 0.0 | 0.0 | 0.00 | 0.10 | 0.00 | 95 | 1014.9 |
| 20260508063157 | 7 | 97 | 0.0 | 0.0 | 0.00 | 0.10 | 0.00 | 95 | 1014.9 |
| 20260508062656 | 7 | 97 | 0.0 | 0.0 | 0.00 | 0.10 | 0.00 | 95 | 1014.9 |
| 20260508062155 | 7 | 98 | 0.0 | 0.0 | 0.00 | 0.10 | 0.00 | 95 | 1014.9 |
| 20260508061654 | 7 | 98 | 0.0 | 1.6 | 0.00 | 0.10 | 0.00 | 95 | 1014.9 |
| 20260508061153 | 7 | 97 | 0.0 | 1.6 | 0.00 | 0.10 | 0.00 | 95 | 1015.2 |
| 20260508060651 | 7 | 98 | 0.0 | 1.6 | 0.00 | 0.10 | 0.00 | 95 | 1014.9 |
| 20260508060150 | 7 | 97 | 0.0 | 1.6 | 0.00 | 0.10 | 0.00 | 95 | 1014.9 |
| 20260508055648 | 7 | 98 | 0.0 | 0.0 | 0.00 | 0.10 | 0.00 | 95 | 1015.2 |
| 20260508055145 | 7 | 98 | 0.0 | 0.0 | 0.00 | 0.10 | 0.00 | 95 | 1014.9 |
| 20260508054644 | 7 | 97 | 0.0 | 0.0 | 0.00 | 0.10 | 0.00 | 95 | 1014.9 |
| 20260508054111 | 7 | 97 | 0.0 | 0.0 | 0.00 | 0.10 | 0.00 | 95 | 1014.9 |
| 20260508053610 | 7 | 97 | 0.0 | 1.6 | 0.00 | 0.10 | 0.00 | 95 | 1014.9 |
| 20260508053038 | 7 | 98 | 0.0 | 1.6 | 0.00 | 0.10 | 0.00 | 95 | 1014.9 |
| 20260508052536 | 7 | 97 | 0.0 | 1.6 | 0.00 | 0.10 | 0.00 | 95 | 1014.9 |
| 20260508052001 | 7 | 97 | 0.0 | 1.6 | 0.00 | 0.10 | 0.00 | 95 | 1014.9 |
| 20260508051500 | 7 | 97 | 0.0 | 0.0 | 0.00 | 0.10 | 0.00 | 95 | 1014.9 |
| 20260508050958 | 7 | 98 | 0.0 | 0.0 | 0.00 | 0.10 | 0.00 | 95 | 1014.9 |
| 20260508050456 | 7 | 97 | 0.0 | 0.0 | 0.00 | 0.10 | 0.00 | 95 | 1014.9 |
| 20260508045954 | 7 | 98 | 0.0 | 0.0 | 0.00 | 0.10 | 0.00 | 95 | 1014.9 |
| 20260508045452 | 7 | 98 | 0.0 | 0.0 | 0.00 | 0.10 | 0.00 | 95 | 1014.9 |
| 20260508044920 | 7 | 97 | 0.0 | 0.0 | 0.00 | 0.10 | 0.00 | 95 | 1014.9 |
| 20260508044419 | 7 | 98 | 0.0 | 0.0 | 0.00 | 0.10 | 0.00 | 95 | 1014.9 |
| 20260508043918 | 7 | 97 | 0.0 | 0.0 | 0.00 | 0.10 | 0.00 | 95 | 1014.9 |
| 20260508043416 | 8 | 98 | 0.0 | 0.0 | 0.00 | 0.10 | 0.00 | 95 | 1014.9 |
| 20260508042915 | 8 | 98 | 0.0 | 0.0 | 0.00 | 0.10 | 0.00 | 95 | 1014.9 |
| 20260508042414 | 8 | 98 | 0.0 | 0.0 | 0.00 | 0.10 | 0.00 | 95 | 1014.9 |
| 20260508041913 | 8 | 97 | 0.0 | 0.0 | 0.00 | 0.10 | 0.00 | 95 | 1014.9 |
| 20260508041411 | 8 | 97 | 0.0 | 0.0 | 0.00 | 0.10 | 0.00 | 95 | 1014.6 |
| 20260508040909 | 8 | 97 | 0.0 | 0.0 | 0.00 | 0.10 | 0.00 | 95 | 1014.6 |
| 20260508040408 | 8 | 97 | 0.0 | 0.0 | 0.00 | 0.10 | 0.00 | 95 | 1014.6 |
| 20260508035906 | 8 | 97 | 0.0 | 0.0 | 0.00 | 0.10 | 0.00 | 95 | 1014.6 |
| 20260508035405 | 8 | 98 | 0.0 | 0.0 | 0.00 | 0.10 | 0.00 | 95 | 1014.6 |
| 20260508034904 | 8 | 97 | 0.0 | 0.0 | 0.00 | 0.10 | 0.00 | 95 | 1014.6 |
| 20260508034403 | 8 | 97 | 0.0 | 0.0 | 0.00 | 0.10 | 0.00 | 95 | 1014.6 |
| 20260508033902 | 8 | 98 | 0.0 | 0.0 | 0.00 | 0.10 | 0.00 | 95 | 1014.6 |
| 20260508033359 | 8 | 98 | 0.0 | 0.0 | 0.00 | 0.10 | 0.00 | 95 | 1014.6 |
| 20260508032858 | 8 | 98 | 0.0 | 0.0 | 0.00 | 0.10 | 0.00 | 94 | 1014.6 |
| 20260508032357 | 8 | 97 | 0.0 | 0.0 | 0.00 | 0.10 | 0.00 | 94 | 1014.6 |
| 20260508031855 | 8 | 97 | 0.0 | 0.0 | 0.00 | 0.10 | 0.00 | 94 | 1014.6 |
| 20260508031323 | 8 | 98 | 0.0 | 0.0 | 0.00 | 0.10 | 0.00 | 94 | 1014.6 |
| 20260508030822 | 8 | 98 | 0.0 | 0.0 | 0.00 | 0.10 | 0.00 | 94 | 1014.6 |
| 20260508030319 | 8 | 97 | 0.0 | 0.0 | 0.00 | 0.10 | 0.00 | 94 | 1014.6 |
| 20260508025817 | 8 | 97 | 0.0 | 0.0 | 0.00 | 0.10 | 0.00 | 94 | 1014.2 |
| 20260508025315 | 8 | 97 | 0.0 | 0.0 | 0.00 | 0.10 | 0.00 | 94 | 1014.6 |
| 20260508024743 | 8 | 97 | 0.0 | 0.0 | 0.00 | 0.10 | 0.00 | 94 | 1014.6 |
| 20260508024240 | 9 | 98 | 0.0 | 0.0 | 0.00 | 0.10 | 0.00 | 94 | 1014.2 |
| 20260508023739 | 9 | 98 | 0.0 | 0.0 | 0.00 | 0.10 | 0.00 | 94 | 1014.2 |
| 20260508023238 | 9 | 97 | 0.0 | 0.0 | 0.00 | 0.10 | 0.00 | 94 | 1014.2 |
| 20260508022737 | 9 | 97 | 0.0 | 0.0 | 0.00 | 0.10 | 0.00 | 94 | 1014.2 |
| 20260508022234 | 9 | 97 | 0.0 | 0.0 | 0.00 | 0.10 | 0.00 | 93 | 1014.2 |
| 20260508021732 | 9 | 97 | 0.0 | 0.0 | 0.00 | 0.10 | 0.00 | 93 | 1014.2 |
| 20260508021129 | 9 | 97 | 0.0 | 0.0 | 0.00 | 0.10 | 0.00 | 93 | 1014.2 |
| 20260508020627 | 10 | 98 | 0.0 | 0.0 | 0.00 | 0.10 | 0.00 | 93 | 1014.2 |
| 20260508020055 | 10 | 97 | 0.0 | 0.0 | 0.00 | 0.10 | 0.00 | 92 | 1013.9 |
| 20260508015553 | 10 | 98 | 0.0 | 0.0 | 0.00 | 0.10 | 0.00 | 92 | 1013.9 |
| 20260508015052 | 10 | 97 | 0.0 | 0.0 | 0.00 | 0.10 | 0.00 | 92 | 1013.9 |
| 20260508014520 | 10 | 96 | 0.0 | 0.0 | 0.00 | 0.10 | 0.00 | 92 | 1013.5 |
| 20260508014017 | 10 | 98 | 0.0 | 0.0 | 0.00 | 0.10 | 0.00 | 92 | 1013.5 |
| 20260508013443 | 10 | 98 | 0.0 | 0.0 | 0.00 | 0.10 | 0.00 | 91 | 1013.5 |
| 20260508012808 | 11 | 97 | 0.0 | 0.0 | 0.00 | 0.10 | 0.00 | 91 | 1013.2 |
| 20260508012308 | 11 | 98 | 0.0 | 0.0 | 0.00 | 0.10 | 0.00 | 90 | 1013.2 |
| 20260508011734 | 11 | 97 | 0.0 | 0.0 | 0.00 | 0.10 | 0.00 | 90 | 1013.2 |
| 20260508011231 | 11 | 97 | 0.0 | 0.0 | 0.00 | 0.10 | 0.00 | 90 | 1013.2 |
| 20260508010730 | 11 | 97 | 0.0 | 0.0 | 0.00 | 0.10 | 0.00 | 89 | 1013.2 |
| 20260508010228 | 12 | 98 | 0.0 | 0.0 | 0.00 | 0.10 | 0.00 | 89 | 1012.9 |
| 20260508005726 | 12 | 98 | 0.0 | 0.0 | 0.00 | 0.10 | 0.00 | 88 | 1012.9 |
| 20260508005224 | 12 | 97 | 0.0 | 0.0 | 0.00 | 0.10 | 0.00 | 87 | 1012.9 |
| 20260508004722 | 12 | 97 | 0.0 | 0.0 | 0.00 | 0.10 | 0.00 | 87 | 1012.9 |
| 20260508004221 | 13 | 97 | 0.0 | 0.0 | 0.00 | 0.10 | 0.00 | 86 | 1012.5 |
| 20260508003720 | 13 | 97 | 0.0 | 0.0 | 0.00 | 0.10 | 0.00 | 84 | 1012.5 |
| 20260508003218 | 13 | 97 | 0.0 | 0.0 | 0.00 | 0.10 | 0.00 | 82 | 1012.5 |
| 20260508002715 | 14 | 97 | 0.0 | 1.6 | 0.00 | 0.10 | 0.00 | 78 | 1012.5 |
| 20260508002141 | 14 | 97 | 0.0 | 1.6 | 0.00 | 0.13 | 0.00 | 75 | 1012.2 |
| 20260508001609 | 15 | 97 | 0.0 | 1.6 | 0.00 | 0.15 | 0.00 | 72 | 1012.2 |
| 20260508001037 | 15 | 96 | 1.6 | 1.6 | 0.00 | 0.15 | 0.00 | 71 | 1012.2 |
| 20260508000535 | 15 | 201 | 0.0 | 3.2 | 0.00 | 0.20 | 0.00 | 72 | 1011.9 |
| 20260508000034 | 15 | 201 | 0.0 | 3.2 | 0.00 | 0.23 | 0.00 | 71 | 1011.9 |
| 20260507235532 | 15 | 201 | 0.0 | 3.2 | 0.00 | 0.23 | 0.00 | 69 | 1011.9 |
| 20260507235000 | 16 | 194 | 1.6 | 3.2 | 0.00 | 0.30 | 0.00 | 67 | 1011.9 |
| 20260507234459 | 16 | 105 | 0.0 | 1.6 | 0.00 | 0.33 | 0.00 | 67 | 1011.9 |
| 20260507233957 | 16 | 105 | 0.0 | 1.6 | 0.00 | 0.36 | 0.00 | 66 | 1011.9 |
| 20260507233456 | 16 | 105 | 0.0 | 1.6 | 0.00 | 0.41 | 0.00 | 67 | 1011.9 |
| 20260507232954 | 16 | 105 | 1.6 | 1.6 | 0.00 | 0.43 | 0.00 | 66 | 1011.9 |
| 20260507232453 | 16 | 85 | 1.6 | 1.6 | 0.00 | 0.43 | 0.00 | 63 | 1011.5 |
| 20260507231920 | 17 | 283 | 0.0 | 1.6 | 0.00 | 0.46 | 0.00 | 65 | 1011.9 |
| 20260507231418 | 17 | 296 | 1.6 | 8.0 | 0.00 | 0.48 | 0.00 | 63 | 1011.9 |
| 20260507230917 | 17 | 57 | 1.6 | 8.0 | 0.00 | 0.48 | 0.00 | 63 | 1011.9 |
| 20260507230415 | 17 | 56 | 0.0 | 9.7 | 0.00 | 0.48 | 0.00 | 64 | 1011.9 |
| 20260507225913 | 17 | 62 | 3.2 | 9.7 | 0.00 | 0.48 | 0.00 | 62 | 1011.9 |
| 20260507225411 | 17 | 136 | 0.0 | 3.2 | 0.00 | 0.48 | 0.00 | 63 | 1011.9 |
| 20260507224838 | 17 | 214 | 0.0 | 3.2 | 0.00 | 0.48 | 0.00 | 63 | 1011.9 |
| 20260507224337 | 17 | 248 | 0.0 | 8.0 | 0.00 | 0.48 | 0.00 | 64 | 1011.9 |
| 20260507223836 | 17 | 73 | 0.0 | 8.0 | 0.00 | 0.48 | 0.00 | 65 | 1011.9 |
| 20260507223334 | 17 | 72 | 1.6 | 8.0 | 0.00 | 0.48 | 0.00 | 67 | 1011.9 |
| 20260507222833 | 18 | 305 | 0.0 | 8.0 | 0.00 | 0.48 | 0.00 | 69 | 1011.9 |
| 20260507222330 | 18 | 76 | 0.0 | 4.8 | 0.00 | 0.48 | 0.00 | 68 | 1011.9 |
| 20260507221829 | 18 | 141 | 0.0 | 4.8 | 0.00 | 0.48 | 0.00 | 64 | 1011.9 |
| 20260507221256 | 18 | 282 | 1.6 | 6.4 | 0.00 | 0.48 | 0.00 | 66 | 1011.9 |
| 20260507220754 | 18 | 227 | 1.6 | 6.4 | 0.00 | 0.51 | 0.00 | 59 | 1011.9 |
| 20260507220222 | 18 | 305 | 0.0 | 6.4 | 0.00 | 0.53 | 0.00 | 64 | 1011.9 |
| 20260507215721 | 18 | 44 | 3.2 | 6.4 | 0.00 | 0.56 | 0.00 | 58 | 1011.9 |
| 20260507215148 | 18 | 251 | 1.6 | 4.8 | 0.00 | 0.58 | 0.00 | 60 | 1011.9 |
| 20260507214647 | 18 | 240 | 3.2 | 4.8 | 0.00 | 0.58 | 0.00 | 71 | 1011.5 |
| 20260507214145 | 18 | 69 | 3.2 | 4.8 | 0.00 | 0.61 | 0.00 | 62 | 1011.9 |
| 20260507213644 | 18 | 8 | 0.0 | 4.8 | 0.00 | 0.64 | 0.00 | 65 | 1011.5 |
| 20260507213111 | 18 | 104 | 1.6 | 4.8 | 0.00 | 0.69 | 0.00 | 63 | 1011.5 |
| 20260507212609 | 18 | 102 | 3.2 | 4.8 | 0.00 | 0.71 | 0.00 | 57 | 1011.5 |
| 20260507212036 | 18 | 246 | 1.6 | 1.6 | 0.00 | 0.74 | 0.00 | 63 | 1011.5 |
| 20260507211534 | 18 | 273 | 0.0 | 1.6 | 0.00 | 0.76 | 0.00 | 62 | 1011.5 |
| 20260507210931 | 18 | 44 | 0.0 | 1.6 | 0.00 | 0.76 | 0.00 | 66 | 1011.2 |
| 20260507210356 | 18 | 44 | 0.0 | 8.0 | 0.00 | 0.79 | 0.00 | 61 | 1011.2 |
| 20260507205823 | 18 | 44 | 0.0 | 8.0 | 0.00 | 0.84 | 0.00 | 63 | 1011.2 |
| 20260507205321 | 18 | 44 | 0.0 | 14.5 | 0.00 | 0.86 | 0.00 | 63 | 1011.2 |
| 20260507204820 | 18 | 10 | 3.2 | 14.5 | 0.00 | 0.86 | 0.00 | 60 | 1011.2 |
| 20260507204319 | 18 | 2 | 3.2 | 16.1 | 0.00 | 0.86 | 0.00 | 61 | 1011.2 |
| 20260507203817 | 19 | 3 | 4.8 | 16.1 | 0.00 | 0.89 | 0.00 | 59 | 1011.2 |
| 20260507203315 | 19 | 3 | 4.8 | 9.7 | 0.00 | 0.91 | 0.00 | 59 | 1011.2 |
| 20260507202813 | 19 | 58 | 1.6 | 8.0 | 0.00 | 0.91 | 0.00 | 62 | 1011.2 |
| 20260507202312 | 18 | 16 | 1.6 | 8.0 | 0.00 | 0.94 | 0.00 | 67 | 1011.2 |
| 20260507201811 | 18 | 29 | 4.8 | 8.0 | 0.00 | 0.94 | 0.00 | 63 | 1011.2 |
| 20260507201310 | 18 | 35 | 1.6 | 8.0 | 0.00 | 0.97 | 0.00 | 61 | 1011.2 |
| 20260507200807 | 18 | 27 | 1.6 | 9.7 | 0.00 | 0.99 | 0.00 | 61 | 1011.5 |
| 20260507200306 | 18 | 29 | 3.2 | 9.7 | 0.00 | 0.99 | 0.00 | 63 | 1011.5 |
| 20260507195805 | 18 | 43 | 1.6 | 9.7 | 0.00 | 1.02 | 0.00 | 65 | 1011.5 |
| 20260507195305 | 18 | 56 | 0.0 | 11.3 | 0.00 | 1.02 | 0.00 | 65 | 1011.5 |
| 20260507194801 | 18 | 44 | 1.6 | 11.3 | 0.00 | 1.04 | 0.00 | 63 | 1011.5 |
| 20260507194258 | 18 | 36 | 4.8 | 9.7 | 0.00 | 1.09 | 0.00 | 67 | 1011.5 |
| 20260507193756 | 18 | 78 | 1.6 | 4.8 | 0.00 | 1.09 | 0.00 | 68 | 1011.5 |
| 20260507193255 | 17 | 12 | 1.6 | 4.8 | 0.00 | 1.14 | 0.00 | 66 | 1011.5 |
| 20260507192722 | 17 | 145 | 0.0 | 6.4 | 0.00 | 1.17 | 0.00 | 65 | 1011.9 |
| 20260507192221 | 17 | 36 | 1.6 | 6.4 | 0.00 | 1.17 | 0.00 | 67 | 1011.9 |
| 20260507191720 | 17 | 39 | 1.6 | 6.4 | 0.00 | 1.17 | 0.00 | 71 | 1011.9 |
| 20260507191218 | 17 | 27 | 3.2 | 11.3 | 0.00 | 1.17 | 0.00 | 69 | 1011.9 |
| 20260507190717 | 17 | 81 | 1.6 | 11.3 | 0.00 | 1.19 | 0.00 | 72 | 1011.9 |
| 20260507190216 | 17 | 44 | 1.6 | 12.9 | 0.00 | 1.22 | 0.00 | 71 | 1011.9 |
| 20260507185714 | 17 | 44 | 3.2 | 12.9 | 0.00 | 1.22 | 0.00 | 72 | 1012.2 |
| 20260507185212 | 17 | 27 | 4.8 | 11.3 | 0.00 | 1.22 | 0.00 | 70 | 1012.2 |
| 20260507184711 | 17 | 39 | 4.8 | 8.0 | 0.00 | 1.24 | 0.00 | 72 | 1012.2 |
| 20260507184210 | 17 | 50 | 1.6 | 8.0 | 0.00 | 1.24 | 0.00 | 73 | 1011.9 |
| 20260507183708 | 17 | 36 | 3.2 | 16.1 | 0.00 | 1.27 | 0.00 | 72 | 1011.9 |
| 20260507183205 | 17 | 8 | 1.6 | 16.1 | 0.00 | 1.27 | 0.00 | 76 | 1011.9 |
| 20260507182702 | 17 | 31 | 3.2 | 17.7 | 0.00 | 1.27 | 0.00 | 74 | 1011.9 |
| 20260507182201 | 17 | 40 | 8.0 | 17.7 | 0.00 | 1.30 | 0.00 | 75 | 1011.9 |
| 20260507181658 | 17 | 20 | 8.0 | 16.1 | 0.00 | 1.32 | 0.00 | 80 | 1011.9 |
| 20260507181157 | 16 | 8 | 1.6 | 9.7 | 0.00 | 1.35 | 0.00 | 87 | 1011.9 |
| 20260507180656 | 16 | 42 | 4.8 | 11.3 | 0.00 | 1.35 | 0.00 | 91 | 1012.2 |
| 20260507180153 | 16 | 23 | 3.2 | 11.3 | 0.00 | 1.35 | 0.00 | 93 | 1011.9 |
| 20260507175651 | 16 | 35 | 4.8 | 11.3 | 0.00 | 1.35 | 0.00 | 94 | 1012.2 |
| 20260507175149 | 16 | 33 | 4.8 | 11.3 | 0.00 | 1.35 | 0.00 | 94 | 1011.9 |
| 20260507174648 | 16 | 28 | 3.2 | 12.9 | 0.00 | 1.35 | 0.00 | 95 | 1011.9 |
| 20260507174116 | 16 | 17 | 1.6 | 12.9 | 0.00 | 1.35 | 0.00 | 95 | 1012.5 |
| 20260507173614 | 15 | 42 | 3.2 | 12.9 | 0.00 | 1.35 | 0.00 | 95 | 1012.5 |
| 20260507173113 | 15 | 18 | 9.7 | 12.9 | 0.00 | 1.35 | 0.00 | 95 | 1012.5 |
| 20260507172611 | 15 | 53 | 4.8 | 11.3 | 0.00 | 1.35 | 0.00 | 94 | 1012.5 |
| 20260507172039 | 15 | 2 | 6.4 | 14.5 | 0.00 | 1.35 | 0.00 | 95 | 1012.5 |
| 20260507171537 | 15 | 126 | 1.6 | 14.5 | 0.00 | 1.35 | 0.00 | 95 | 1012.5 |
| 20260507171004 | 14 | 57 | 3.2 | 14.5 | 0.00 | 1.35 | 0.00 | 95 | 1012.5 |
| 20260507170503 | 14 | 20 | 4.8 | 14.5 | 0.00 | 1.35 | 0.00 | 95 | 1012.5 |
| 20260507170001 | 13 | 114 | 3.2 | 11.3 | 0.00 | 1.35 | 0.00 | 95 | 1012.5 |
| 20260507165429 | 13 | 23 | 3.2 | 11.3 | 0.00 | 1.35 | 0.00 | 95 | 1012.5 |
| 20260507164926 | 13 | 30 | 3.2 | 9.7 | 0.00 | 1.35 | 0.00 | 95 | 1012.5 |
| 20260507164352 | 13 | 34 | 3.2 | 9.7 | 0.00 | 1.35 | 0.00 | 95 | 1012.5 |
| 20260507163850 | 13 | 41 | 1.6 | 11.3 | 0.00 | 1.35 | 0.00 | 95 | 1012.9 |
| 20260507163348 | 12 | 45 | 4.8 | 11.3 | 0.00 | 1.35 | 0.00 | 95 | 1012.9 |
| 20260507162844 | 12 | 43 | 4.8 | 11.3 | 0.00 | 1.35 | 0.00 | 95 | 1012.9 |
| 20260507162342 | 13 | 52 | 4.8 | 11.3 | 0.00 | 1.35 | 0.00 | 95 | 1012.9 |
| 20260507161841 | 13 | 46 | 6.4 | 11.3 | 0.00 | 1.35 | 0.00 | 95 | 1012.9 |
| 20260507161339 | 13 | 64 | 3.2 | 11.3 | 0.00 | 1.35 | 0.00 | 95 | 1012.9 |
| 20260507160838 | 13 | 347 | 1.6 | 8.0 | 0.00 | 1.35 | 0.00 | 95 | 1012.9 |
| 20260507160336 | 13 | 85 | 3.2 | 8.0 | 0.00 | 1.35 | 0.00 | 95 | 1012.9 |
| 20260507155834 | 13 | 37 | 3.2 | 8.0 | 0.00 | 1.35 | 1.35 | 95 | 1012.5 |
| 20260507155229 | 12 | 48 | 3.2 | 8.0 | 0.00 | 1.35 | 1.35 | 95 | 1012.5 |
| 20260507154728 | 12 | 40 | 3.2 | 6.4 | 0.00 | 1.35 | 1.35 | 95 | 1012.5 |
| 20260507154155 | 12 | 41 | 1.6 | 8.0 | 0.00 | 1.35 | 1.35 | 95 | 1012.5 |
| 20260507153654 | 12 | 56 | 4.8 | 8.0 | 0.00 | 1.35 | 1.35 | 95 | 1012.5 |
| 20260507153121 | 12 | 215 | 1.6 | 3.2 | 0.00 | 1.35 | 1.35 | 95 | 1012.5 |
| 20260507152619 | 12 | 215 | 1.6 | 3.2 | 0.00 | 1.35 | 1.35 | 95 | 1012.5 |
| 20260507152118 | 12 | 61 | 0.0 | 4.8 | 0.00 | 1.35 | 1.35 | 95 | 1012.5 |
| 20260507151616 | 11 | 71 | 1.6 | 4.8 | 0.00 | 1.35 | 1.35 | 95 | 1012.5 |
| 20260507151115 | 12 | 47 | 3.2 | 4.8 | 0.00 | 1.35 | 1.35 | 95 | 1012.5 |
| 20260507150614 | 12 | 77 | 1.6 | 4.8 | 0.00 | 1.35 | 1.35 | 95 | 1012.5 |
| 20260507150009 | 12 | 53 | 1.6 | 4.8 | 0.00 | 1.35 | 1.35 | 95 | 1012.5 |
| 20260507145507 | 12 | 51 | 3.2 | 4.8 | 0.00 | 1.35 | 1.35 | 95 | 1012.5 |
| 20260507145005 | 12 | 89 | 0.0 | 1.6 | 0.00 | 1.37 | 1.35 | 95 | 1012.5 |
| 20260507144504 | 12 | 82 | 1.6 | 1.6 | 0.00 | 1.40 | 1.35 | 95 | 1012.5 |
| 20260507144003 | 12 | 103 | 1.6 | 3.2 | 0.00 | 1.40 | 1.35 | 95 | 1012.5 |
| 20260507143501 | 12 | 6 | 0.0 | 3.2 | 0.00 | 1.42 | 1.35 | 95 | 1012.5 |
| 20260507143000 | 12 | 6 | 0.0 | 4.8 | 0.00 | 1.45 | 1.35 | 95 | 1012.5 |
| 20260507142458 | 12 | 16 | 1.6 | 4.8 | 0.00 | 1.47 | 1.35 | 95 | 1012.2 |
| 20260507141956 | 12 | 48 | 1.6 | 6.4 | 0.00 | 1.50 | 1.35 | 95 | 1012.2 |
| 20260507141455 | 12 | 70 | 3.2 | 6.4 | 0.00 | 1.52 | 1.35 | 95 | 1012.2 |
| 20260507140953 | 12 | 64 | 0.0 | 6.4 | 0.00 | 1.52 | 1.35 | 95 | 1012.2 |
| 20260507140452 | 12 | 78 | 1.6 | 6.4 | 0.00 | 1.55 | 1.35 | 95 | 1011.9 |
| 20260507135951 | 12 | 44 | 0.0 | 6.4 | 0.00 | 1.57 | 1.35 | 95 | 1011.9 |